Terug naar catalogus

FENGYUN 1C DEB

ActiefSSO
NORAD 30023·DEBRIS·🇨🇳 China

Gelanceerd May 10, 1999 vanaf Taiyuan Satellite Launch Center

Loading…

Volgende Passages (komende 24 uur)

TLE

VersSource: Space-Track

Epoch: Sep 14, 2026, 20:32 UTC

1 30023U 99025MY  26257.85559635  .00000426  00000-0  25489-3 0  9994
2 30023  99.2766 106.2533 0046822  13.1230   2.2316 14.12226560 10937

Volg FENGYUN 1C DEB in realtime met AllMySat

Download on the App Store